Volver al catálogo

FENGYUN 1C DEB

ActivoSSO
NORAD 30313·DEBRIS·🇨🇳 China

Lanzado May 10, 1999 desde Taiyuan Satellite Launch Center

Loading…

Próximos Pases (próximas 24 horas)

TLE

ActualizadoSource: Space-Track

Época: Sep 14, 2026, 06:05 UTC

1 30313U 99025AAA 26257.25402716  .00002490  00000-0  10144-2 0  9991
2 30313  98.8698 352.0839 0055535 256.1626 128.4012 14.27545660 10145

Sigue FENGYUN 1C DEB en tiempo real con AllMySat

Download on the App Store